Location: Bakhuizen
(52.8696°N, 5.4575°E)
Time: 15:27:09
(UTC+00:00)

Nimbus 7 Rocket - Pass Details

Date: 03 October 2021
Orbit: 922 x 965 km, 99.4° (Epoch: 24 October)

Event Time Altitude Azimuth Distance (km) Brightness Sun altitude
Rises 02:04:47 0° 10° (N) 3,588 8.2 -31.4°
Reaches altitude 10° 02:08:23 10° 348° (NNW) 2,646 7.1 -31.0°
Enters shadow 02:11:09 14° 319° (NW) 2,344 6.5 -30.7°
